Погода в Петровке

Россия / Томская область     57°11′30″N   83°55′37″E
темп.,
°C
ветер,
м/с
пор.,
м/с
влажн.,
%
обл.,
%
осадки,
мм/ч
давл.,
гПа
погр.,
м
18 января, вт
вт1801:00−10юз5138611 0.0 1017502
04:00−11ююз5138972 0.0 1018475
07:00−12ююз5129196 0.0 1019441
10:00−12ююз51291100 0.0 1021491
13:00−11ююз5139092 0.1 1022597
16:00−10ююз5128986 0.0 1022518
19:00−12ююз41192100 0.0 1023380
22:00−13ююз4119477 0.0 1024320
19 января, ср
ср1901:00−15ююз4119461 0.0 1024279
04:00−15ююз4119482 0.0 1024288
07:00−14ююз4119494 0.0 1023317
10:00−12ююз4119396 0.0 1023344
13:00−11ююз4119196 0.0 1023380
16:00−10ююз4109011 0.0 1023390
19:00−13ююз499318 0.0 1024214
22:00−14ююз399514 0.0 1024181
20 января, чт
чт2001:00−16ююз38955 0.0 1025159
04:00
07:00−18ююз36975 0.0 102699
10:00−18ююз379776 0.0 1028116
13:00
16:00−12ююз379432 0.0 1028248
19:00−14ю389635 0.0 1029146
22:00−15ююз379665 0.0 1029139
21 января, пт
пт2101:00−15ю389681 0.0 1029165
04:00−14ююз4994100 0.0 1028211
07:00−14ююз389373 0.0 1028197
10:00−15ююз379485 0.0 1029159
13:00−12ююз359394 0.2 1028223
16:00−11ююз359594 0.1 1028209
19:00−15ююз379980 0.1 1028112
22:00−15ююз3798100 0.0 1027129
22 января, сб
сб2201:00−15ююз3896100 0.0 1027158
04:00−13ююз3995100 0.0 1026229
07:00−12ююз41094100 0.0 1025305
10:00−11юз3893100 0.0 1026320
13:00−9юз3894100 0.4 1026373
16:00−8зюз2695100 0.9 1027389
19:00−11зюз239777 1.4 102846
22:00−14з229975 0.1 103020